Location: Chervonnoye
(48.6000°N, 34.4000°E)
Time: 21:09:04
(UTC+00:00)

RS-44 - Pass Details

Date: 01 December 2021
Orbit: 1175 x 1510 km, 82.5° (Epoch: 19 January)

Event Time Altitude Azimuth Distance (km) Brightness Sun altitude
Rises 18:51:53 0° 223° (SW) 4,120 ? -48.6°
Enters shadow 18:53:06 - 227° (SW) 3,721 ? -48.8°
Exits shadow 19:09:29 - 3° (N) 3,729 ? -51.2°
Sets 19:10:36 0° 6° (N) 4,095 ? -51.4°
